Flag for Greenland Weather past 2 weeks in Nuuk, Greenland

Now
39 °F

Snow. Light fog.


Feels Like: 36 °F
Forecast: 40 / 53 °F
Wind: 5 mph from South

Location: Godthaab / Nuuk

Current Time: Aug 1, 2015 at 8:10:18 AM

Latest Report: Aug 1, 2015 at 6:50 AM


Visibility: 2 mi

Pressure: 30.09 "Hg

Humidity: 100%

Dew point: 39 °F

Location of NuukLocation

Historic Weather in Nuuk — Graph

°F

Nuuk temperature yesterday

Maximum temperature yesterday: 54 °F (at 12:50 PM)
Minimum temperature yesterday: 39 °F (at 12:50 AM)
Average temperature yesterday: 45 °F

Past Weeks' High & Low Weather Summary

 TemperatureHumidityPressure
High63 °F (Jul 17, 4:50 PM)100% (Jul 19, 1:50 AM)30.21 "Hg (Jul 19, 1:50 AM)
Low36 °F (Jul 21, 6:50 AM)37% (Jul 17, 4:50 PM)29.89 "Hg (Jul 26, 9:50 PM)
Average45 °F83%30.06 "Hg
* Reported Jul 17 6:50 AM — Aug 1 6:50 AM, Nuuk, Weather by CustomWeather, © 2015

Note: Actual official high and low records may vary slightly from our data, if they occured in-between our weather recording intervals... More about our weather records

Advertising

Nuuk weather history for previous 24 hours

 ConditionsComfort  
Time TempWeatherWind HumidityBarometerVisibility
6:50 AM
Sat, Aug 1
39 °FSnow. Light fog.5 mph100%30.09 "Hg2 mi
5:50 AM39 °FSnow flurries. Fog.8 mph93%30.09 "Hg0 mi
4:50 AM39 °FLight snow. Dense fog.9 mph100%30.09 "Hg0 mi
3:50 AM39 °FLight rain. Dense fog.7 mph100%30.09 "Hg0 mi
2:50 AM41 °FPassing clouds.7 mph93%30.09 "HgN/A
1:50 AM41 °FPassing clouds.5 mph93%30.12 "HgN/A
12:50 AM41 °FPassing clouds.5 mph93%30.12 "HgN/A
11:50 PM
Fri, Jul 31
41 °FPassing clouds.6 mph93%30.12 "HgN/A
10:50 PM43 °FPartly sunny.5 mph87%30.12 "HgN/A
9:50 PM43 °FPartly sunny.3 mph87%30.12 "HgN/A
8:50 PM43 °FPartly sunny.8 mph87%30.12 "HgN/A
7:50 PM43 °FPartly sunny.9 mph81%30.09 "HgN/A
6:50 PM46 °FPartly sunny.7 mph71%30.12 "HgN/A
5:50 PM48 °FPartly sunny.8 mph66%30.12 "HgN/A
4:50 PM52 °FScattered clouds.8 mph54%30.09 "HgN/A
3:50 PM54 °FScattered clouds.7 mph51%30.09 "HgN/A
2:50 PM52 °FScattered clouds.7 mph50%30.12 "HgN/A
1:50 PM54 °FScattered clouds.6 mph54%30.12 "HgN/A
12:50 PM54 °FFog.3 mph63%30.12 "HgN/A
11:50 AM50 °FScattered clouds.5 mph71%30.12 "HgN/A
10:50 AM50 °FScattered clouds.8 mph71%30.12 "Hg1 mi
9:50 AM45 °FFog.7 mph87%30.12 "Hg1 mi
8:50 AM41 °FFog.7 mph93%30.12 "Hg0 mi
Weather by CustomWeather, © 2015

See weather overviewHow to use our weather pages